KB6VSE Weather Reports


Display with metric or nautical units.
time (UTC)temp
F
wind
direction
speed
MPH
gust
MPH
rain 1hr
in
rain 24hr
in
rain mn
in
humidity
%
barometer
mb
20260506061545 55 0 0.0 0.0 0.00 0.00 0.00 84 1019.4
20260506044553 56 0 0.0 0.0 0.00 0.00 0.00 81 1018.9
20260506043101 56 0 0.0 0.0 0.00 0.00 0.00 81 1018.7
20260506041604 56 0 0.0 0.0 0.00 0.00 0.00 81 1018.4
20260506040050 56 0 0.0 0.0 0.00 0.00 0.00 80 1018.2
20260506034554 56 0 0.0 0.0 0.00 0.00 0.00 80 1018.0
20260506033051 57 0 0.0 0.0 0.00 0.00 0.00 78 1017.8
20260506031547 58 0 0.0 0.0 0.00 0.00 0.00 77 1017.5
20260506030051 59 0 0.0 0.0 0.00 0.00 0.00 76 1017.4
20260506024550 60 0 0.0 0.0 0.00 0.00 0.00 74 1017.0
20260506023051 61 0 0.0 0.0 0.00 0.00 0.00 72 1016.7
20260506021556 62 0 0.0 0.0 0.00 0.00 0.00 71 1016.5
20260506020045 62 0 0.0 1.0 0.00 0.00 0.00 69 1016.3
20260506014551 63 0 0.0 0.0 0.00 0.00 0.00 69 1016.3
20260506013052 64 0 0.0 0.0 0.00 0.00 0.00 69 1016.1
20260506011547 65 0 0.0 0.0 0.00 0.00 0.00 68 1016.0
20260506010051 66 0 0.0 0.0 0.00 0.00 0.00 65 1016.0
20260506004547 67 0 0.0 0.0 0.00 0.00 0.00 63 1015.9
20260506003044 68 0 0.0 0.0 0.00 0.00 0.00 62 1015.7
20260506001606 69 0 0.0 0.0 0.00 0.00 0.00 61 1015.6
20260506000048 70 0 0.0 0.0 0.00 0.00 0.00 60 1015.4
20260505234548 71 0 0.0 1.0 0.00 0.00 0.00 59 1015.4
20260505233053 71 0 0.0 0.0 0.00 0.00 0.00 60 1015.4
20260505231548 72 0 0.0 0.0 0.00 0.00 0.00 62 1015.5
20260505230044 72 0 0.0 0.0 0.00 0.00 0.00 62 1015.4
20260505224548 71 0 0.0 0.0 0.00 0.00 0.00 61 1015.5
20260505223051 70 0 0.0 0.0 0.00 0.00 0.00 63 1015.5
20260505221546 70 0 0.0 0.0 0.00 0.00 0.00 63 1015.9
20260505220050 69 0 0.0 0.0 0.00 0.00 0.00 62 1016.0
20260505214600 69 0 0.0 0.0 0.00 0.00 0.00 66 1016.1
20260505213054 67 0 0.0 1.0 0.00 0.00 0.00 65 1016.3
20260505211545 67 0 0.0 0.0 0.00 0.00 0.00 71 1016.4
20260505210052 65 0 0.0 0.0 0.00 0.00 0.00 70 1016.4
20260505204545 64 0 0.0 0.0 0.00 0.00 0.00 68 1016.5
20260505203049 64 0 0.0 0.0 0.00 0.00 0.00 77 1016.6
20260505201552 63 0 0.0 0.0 0.00 0.00 0.00 74 1016.8
20260505200043 62 0 0.0 0.0 0.00 0.00 0.00 78 1017.0
20260505194545 61 0 0.0 0.0 0.00 0.00 0.00 77 1016.9
20260505193050 62 0 0.0 1.0 0.00 0.00 0.00 79 1017.0
20260505191552 60 0 0.0 0.0 0.00 0.00 0.00 78 1017.0
20260505184601 60 0 0.0 0.0 0.00 0.00 0.00 80 1017.1
20260505183050 59 0 0.0 0.0 0.00 0.00 0.00 81 1017.1
20260505181550 58 0 0.0 0.0 0.00 0.00 0.00 85 1017.0
20260505180053 57 0 0.0 0.0 0.00 0.00 0.00 86 1017.1
20260505174550 57 0 0.0 0.0 0.00 0.00 0.00 85 1017.0
20260505173046 56 0 0.0 0.0 0.00 0.00 0.00 86 1017.0
20260505171544 56 0 0.0 0.0 0.00 0.00 0.00 87 1016.8
20260505170059 55 0 0.0 0.0 0.00 0.00 0.00 89 1016.9
20260505164547 55 0 0.0 0.0 0.00 0.00 0.00 91 1016.8
20260505163055 55 0 0.0 0.0 0.00 0.00 0.00 93 1016.9
20260505161545 54 0 0.0 0.0 0.00 0.00 0.00 94 1016.8
20260505153104 53 0 0.0 0.0 0.00 0.00 0.00 95 1016.8
20260505151547 53 0 0.0 0.0 0.00 0.00 0.00 95 1016.7
20260505150107 53 0 0.0 0.0 0.00 0.00 0.00 95 1016.7
20260505124544 52 0 0.0 0.0 0.00 0.00 0.00 95 1015.9
20260505123104 52 0 0.0 0.0 0.00 0.00 0.00 95 1015.9
20260505121549 52 0 0.0 0.0 0.00 0.00 0.00 95 1015.7
20260505120052 52 0 0.0 0.0 0.00 0.00 0.00 95 1015.8
20260505114553 52 0 0.0 0.0 0.00 0.00 0.00 95 1015.8
20260505113052 52 0 0.0 0.0 0.00 0.00 0.00 95 1015.8
20260505111554 52 0 0.0 0.0 0.00 0.00 0.00 95 1015.8
20260505101547 52 0 0.0 0.0 0.00 0.00 0.00 95 1015.9
20260505100049 52 0 0.0 0.0 0.00 0.00 0.00 95 1016.0
20260505094548 52 0 0.0 0.0 0.00 0.00 0.00 95 1016.1
20260505093048 52 0 0.0 0.0 0.00 0.00 0.00 95 1016.3
20260505091549 52 0 0.0 0.0 0.00 0.00 0.00 95 1016.3
20260505090055 52 0 0.0 0.0 0.00 0.00 0.00 95 1016.3
20260505084548 52 0 0.0 0.0 0.00 0.00 0.00 95 1016.4
20260505083047 52 0 0.0 0.0 0.00 0.00 0.00 95 1016.5
20260505081548 52 0 0.0 0.0 0.00 0.00 0.00 95 1016.5
20260505080053 53 0 0.0 0.0 0.00 0.00 0.00 95 1016.5
20260505074550 53 0 0.0 0.0 0.00 0.00 0.00 95 1016.6
20260505073057 53 0 0.0 0.0 0.00 0.00 0.00 95 1016.5
20260505071545 53 0 0.0 0.0 0.00 0.00 0.00 95 1016.6
20260505070052 53 0 0.0 0.0 0.00 0.00 0.00 95 1016.9